Time,TemperatureF,DewpointF,PressureIn,WindDirection,WindDirectionDegrees,WindSpeedMPH,WindSpeedGustMPH,Humidity,HourlyPrecipIn,Conditions,Clouds,dailyrainin,SoftwareType,DateUTC
2013-07-20 00:02:00,75.0,72.0,30.02,East,101,4.0,7.0,91,0.00,,,0.00,,2013-07-20 05:02:00,
2013-07-20 00:12:00,75.0,72.0,30.02,East,101,4.0,7.0,91,0.00,,,0.00,,2013-07-20 05:12:00,
2013-07-20 00:22:00,75.0,72.0,30.02,East,101,4.0,7.0,91,0.00,,,0.00,,2013-07-20 05:22:00,
2013-07-20 08:43:00,77.0,74.0,29.98,SSE,156,2.0,7.0,89,0.00,,,0.00,,2013-07-20 13:43:00,
2013-07-20 08:53:00,77.0,74.0,29.98,SSE,156,2.0,7.0,89,0.00,,,0.00,,2013-07-20 13:53:00,
2013-07-20 09:02:00,78.0,74.0,29.98,SE,134,6.0,9.0,87,0.00,,,0.00,,2013-07-20 14:02:00,
2013-07-20 09:11:00,77.0,73.0,29.98,SSE,148,6.0,11.0,87,0.00,,,0.00,,2013-07-20 14:11:00,
2013-07-20 09:32:00,78.0,74.0,29.98,ENE,67,5.0,9.0,87,0.00,,,0.00,,2013-07-20 14:32:00,
2013-07-20 09:43:00,79.0,73.0,29.99,East,85,4.0,9.0,83,0.00,,,0.00,,2013-07-20 14:43:00,
2013-07-20 09:53:00,80.0,74.0,29.99,East,94,5.0,12.0,81,0.00,,,0.00,,2013-07-20 14:53:00,
2013-07-20 10:01:00,80.0,74.0,29.99,East,94,5.0,12.0,81,0.00,,,0.00,,2013-07-20 15:01:00,
2013-07-20 10:11:00,81.0,74.0,29.98,SSE,155,6.0,10.0,79,0.00,,,0.00,,2013-07-20 15:11:00,
2013-07-20 10:33:00,81.0,73.0,30.00,East,94,6.0,13.0,78,0.00,,,0.00,,2013-07-20 15:33:00,
2013-07-20 10:44:00,81.0,73.0,30.01,South,189,6.0,14.0,77,0.00,,,0.00,,2013-07-20 15:44:00,
2013-07-20 10:53:00,81.0,73.0,30.00,ESE,120,7.0,18.0,77,0.00,,,0.00,,2013-07-20 15:53:00,
2013-07-20 11:01:00,81.0,73.0,30.00,ESE,120,7.0,18.0,77,0.00,,,0.00,,2013-07-20 16:01:00,
2013-07-20 11:11:00,81.0,73.0,30.00,ESE,110,7.0,13.0,76,0.00,,,0.00,,2013-07-20 16:11:00,
2013-07-20 11:22:00,81.0,74.0,30.00,SE,140,5.0,14.0,79,0.00,,,0.00,,2013-07-20 16:22:00,
2013-07-20 11:32:00,81.0,74.0,30.00,SE,140,5.0,14.0,79,0.00,,,0.00,,2013-07-20 16:32:00,
2013-07-20 11:43:00,81.0,73.0,30.01,SE,135,7.0,19.0,77,0.00,,,0.00,,2013-07-20 16:43:00,
2013-07-20 11:52:00,81.0,73.0,30.00,SSE,163,7.0,14.0,77,0.00,,,0.00,,2013-07-20 16:52:00,
2013-07-20 12:02:00,81.0,73.0,30.00,SSE,163,7.0,14.0,77,0.00,,,0.00,,2013-07-20 17:02:00,
2013-07-20 12:11:00,82.0,73.0,30.00,SSE,162,7.0,14.0,75,0.00,,,0.00,,2013-07-20 17:11:00,
2013-07-20 12:22:00,81.0,73.0,30.00,ESE,115,8.0,15.0,76,0.00,,,0.00,,2013-07-20 17:22:00,
2013-07-20 12:32:00,81.0,73.0,30.00,ESE,115,8.0,15.0,76,0.00,,,0.00,,2013-07-20 17:32:00,
2013-07-20 12:43:00,81.0,73.0,30.00,ESE,115,8.0,15.0,76,0.00,,,0.00,,2013-07-20 17:43:00,
2013-07-20 12:53:00,81.0,73.0,30.00,South,190,6.0,11.0,76,0.00,,,0.00,,2013-07-20 17:53:00,
2013-07-20 13:01:00,81.0,73.0,30.00,South,190,6.0,11.0,76,0.00,,,0.00,,2013-07-20 18:01:00,
2013-07-20 13:12:00,82.0,73.0,29.99,ESE,123,6.0,14.0,74,0.00,,,0.00,,2013-07-20 18:12:00,
2013-07-20 13:24:00,82.0,73.0,29.99,SE,131,7.0,12.0,74,0.00,,,0.00,,2013-07-20 18:24:00,
2013-07-20 13:36:00,82.0,73.0,29.99,SE,131,7.0,12.0,74,0.00,,,0.00,,2013-07-20 18:36:00,
2013-07-20 13:46:00,83.0,73.0,29.98,SE,128,9.0,18.0,72,0.00,,,0.00,,2013-07-20 18:46:00,
2013-07-20 13:55:00,82.0,72.0,29.98,SSE,155,7.0,16.0,72,0.00,,,0.00,,2013-07-20 18:55:00,
2013-07-20 14:05:00,82.0,72.0,29.98,SSE,155,7.0,16.0,72,0.00,,,0.00,,2013-07-20 19:05:00,
2013-07-20 14:16:00,83.0,73.0,29.98,NE,53,6.0,13.0,73,0.00,,,0.00,,2013-07-20 19:16:00,
2013-07-20 14:26:00,83.0,73.0,29.97,SE,124,6.0,13.0,72,0.00,,,0.00,,2013-07-20 19:26:00,
2013-07-20 14:35:00,83.0,73.0,29.97,SE,124,6.0,13.0,72,0.00,,,0.00,,2013-07-20 19:35:00,
2013-07-20 14:44:00,82.0,73.0,29.97,SE,125,6.0,14.0,74,0.00,,,0.00,,2013-07-20 19:44:00,
2013-07-20 14:54:00,82.0,74.0,29.96,SSE,163,4.0,13.0,76,0.00,,,0.00,,2013-07-20 19:54:00,
2013-07-20 15:06:00,82.0,74.0,29.96,SSE,163,4.0,13.0,76,0.00,,,0.00,,2013-07-20 20:06:00,
2013-07-20 15:15:00,82.0,73.0,29.96,SE,132,5.0,14.0,75,0.00,,,0.00,,2013-07-20 20:15:00,
2013-07-20 15:24:00,82.0,73.0,29.96,SSE,148,7.0,14.0,75,0.00,,,0.00,,2013-07-20 20:24:00,
2013-07-20 15:34:00,82.0,73.0,29.96,SSE,148,7.0,14.0,75,0.00,,,0.00,,2013-07-20 20:34:00,
2013-07-20 15:45:00,81.0,73.0,29.95,SE,141,7.0,13.0,77,0.00,,,0.00,,2013-07-20 20:45:00,
2013-07-20 15:56:00,81.0,73.0,29.95,East,84,6.0,16.0,77,0.00,,,0.00,,2013-07-20 20:56:00,
2013-07-20 16:06:00,81.0,73.0,29.95,East,84,6.0,16.0,77,0.00,,,0.00,,2013-07-20 21:06:00,
2013-07-20 16:15:00,81.0,73.0,29.95,SE,127,5.0,11.0,76,0.00,,,0.00,,2013-07-20 21:15:00,
2013-07-20 16:27:00,81.0,73.0,29.95,SE,140,8.0,15.0,77,0.00,,,0.00,,2013-07-20 21:27:00,
2013-07-20 16:35:00,81.0,73.0,29.95,SE,140,8.0,15.0,77,0.00,,,0.00,,2013-07-20 21:35:00,
2013-07-20 16:45:00,81.0,73.0,29.94,SE,137,7.0,13.0,76,0.00,,,0.00,,2013-07-20 21:45:00,
2013-07-20 16:55:00,81.0,72.0,29.94,ESE,118,9.0,14.0,74,0.00,,,0.00,,2013-07-20 21:55:00,
2013-07-20 17:07:00,81.0,72.0,29.94,ESE,118,9.0,14.0,74,0.00,,,0.00,,2013-07-20 22:07:00,
2013-07-20 17:17:00,82.0,73.0,29.94,SSE,161,5.0,11.0,74,0.00,,,0.00,,2013-07-20 22:17:00,
2013-07-20 17:26:00,81.0,73.0,29.93,SE,129,5.0,12.0,78,0.00,,,0.00,,2013-07-20 22:26:00,
2013-07-20 17:35:00,81.0,73.0,29.93,SE,129,5.0,12.0,78,0.00,,,0.00,,2013-07-20 22:35:00,
2013-07-20 17:47:00,81.0,73.0,29.93,SSE,164,5.0,13.0,76,0.00,,,0.00,,2013-07-20 22:47:00,
2013-07-20 17:55:00,80.0,72.0,29.93,ESE,112,8.0,16.0,76,0.00,,,0.00,,2013-07-20 22:55:00,
2013-07-20 18:05:00,80.0,72.0,29.93,ESE,112,8.0,16.0,76,0.00,,,0.00,,2013-07-20 23:05:00,
2013-07-20 18:17:00,81.0,73.0,29.93,SE,134,5.0,18.0,76,0.00,,,0.00,,2013-07-20 23:17:00,
2013-07-20 18:28:00,80.0,72.0,29.93,SE,137,5.0,11.0,78,0.00,,,0.00,,2013-07-20 23:28:00,
2013-07-20 18:37:00,80.0,72.0,29.93,SE,137,5.0,11.0,78,0.00,,,0.00,,2013-07-20 23:37:00,
2013-07-20 18:44:00,79.0,72.0,29.93,SE,140,4.0,11.0,80,0.00,,,0.00,,2013-07-20 23:44:00,
2013-07-20 18:55:00,79.0,73.0,29.94,East,86,2.0,8.0,81,0.00,,,0.00,,2013-07-20 23:55:00,
2013-07-20 19:07:00,79.0,73.0,29.94,East,86,2.0,8.0,81,0.00,,,0.00,,2013-07-21 00:07:00,
2013-07-20 19:18:00,79.0,73.0,29.93,ESE,109,4.0,9.0,81,0.00,,,0.00,,2013-07-21 00:18:00,
2013-07-20 19:24:00,78.0,72.0,29.94,ESE,103,3.0,8.0,82,0.00,,,0.00,,2013-07-21 00:24:00,
2013-07-20 19:55:00,77.0,72.0,29.95,SSE,151,2.0,7.0,84,0.00,,,0.00,,2013-07-21 00:55:00,
2013-07-20 20:06:00,77.0,72.0,29.95,SSE,151,2.0,7.0,84,0.00,,,0.00,,2013-07-21 01:06:00,
2013-07-20 20:12:00,77.0,72.0,29.95,SE,132,2.0,6.0,85,0.00,,,0.00,,2013-07-21 01:12:00,
2013-07-20 20:27:00,77.0,72.0,29.96,ENE,59,4.0,7.0,86,0.00,,,0.00,,2013-07-21 01:27:00,
2013-07-20 20:36:00,77.0,72.0,29.96,ENE,59,4.0,7.0,86,0.00,,,0.00,,2013-07-21 01:36:00,
2013-07-20 20:47:00,-999.0,-99.9,29.96,South,171,3.0,8.0,-999,-99.99,,,-99.99,,2013-07-21 01:47:00,
2013-07-20 21:06:00,76.0,72.0,29.97,East,98,5.0,8.0,87,0.00,,,0.00,,2013-07-21 02:06:00,
2013-07-20 21:18:00,76.0,72.0,29.97,East,101,3.0,7.0,88,0.00,,,0.00,,2013-07-21 02:18:00,
2013-07-20 21:36:00,76.0,72.0,29.98,East,95,3.0,7.0,88,0.00,,,0.00,,2013-07-21 02:36:00,
2013-07-20 21:44:00,76.0,72.0,29.98,ESE,102,2.0,6.0,88,0.00,,,0.00,,2013-07-21 02:44:00,
2013-07-20 21:54:00,76.0,72.0,29.98,East,82,2.0,6.0,88,0.00,,,0.00,,2013-07-21 02:54:00,
2013-07-20 22:05:00,76.0,72.0,29.98,East,82,2.0,6.0,88,0.00,,,0.00,,2013-07-21 03:05:00,
2013-07-20 22:14:00,75.0,72.0,29.99,ESE,109,4.0,6.0,89,0.00,,,0.00,,2013-07-21 03:14:00,
2013-07-20 22:25:00,76.0,73.0,30.00,ESE,103,3.0,8.0,89,0.00,,,0.00,,2013-07-21 03:25:00,
2013-07-20 22:36:00,76.0,73.0,30.00,ESE,103,3.0,8.0,89,0.00,,,0.00,,2013-07-21 03:36:00,
2013-07-20 22:45:00,76.0,73.0,30.01,ENE,78,9.0,16.0,90,0.00,,,0.00,,2013-07-21 03:45:00,
2013-07-20 22:53:00,73.0,70.0,30.01,East,82,5.0,10.0,90,0.00,,,0.00,,2013-07-21 03:53:00,
2013-07-20 22:56:00,73.0,70.0,30.01,South,181,5.0,13.0,91,0.00,,,0.00,,2013-07-21 03:56:00,
2013-07-20 23:01:00,73.0,70.0,30.01,South,181,5.0,13.0,91,0.00,,,0.00,,2013-07-21 04:01:00,
2013-07-20 23:11:00,73.0,70.0,30.01,East,82,5.0,10.0,90,0.00,,,0.00,,2013-07-21 04:11:00,
2013-07-20 23:22:00,73.0,70.0,30.01,East,82,5.0,10.0,90,0.00,,,0.00,,2013-07-21 04:22:00,
2013-07-20 23:32:00,73.0,70.0,30.01,East,82,5.0,10.0,90,0.00,,,0.00,,2013-07-21 04:32:00,
2013-07-20 23:43:00,73.0,70.0,30.01,East,82,5.0,10.0,90,0.00,,,0.00,,2013-07-21 04:43:00,